Radiation Dose at Monitoring Post of Fukushima Daini Nuclear Power Station
Date,Time,MP-1(microSv/h),MP-2(microSv/h),MP-3(microSv/h),MP-4(microSv/h),MP-5(microSv/h),MP-6(microSv/h),MP-7(microSv/h),Wind Direction,Wind Velocity(m/s),Rain
2016/04/05,00:00,0.447,0.259,0.465,0.411,0.388,0.211,0.182,north,5.3,No
2016/04/05,00:10,0.448,0.258,0.467,0.408,0.386,0.211,0.182,north,6.4,No
2016/04/05,00:20,0.448,0.260,0.464,0.412,0.389,0.210,0.181,north,6.3,No
2016/04/05,00:30,0.446,0.259,0.465,0.409,0.387,0.209,0.181,north,5.4,No
2016/04/05,00:40,0.448,0.258,0.466,0.411,0.387,0.209,0.182,north,5.0,No
2016/04/05,00:50,0.445,0.258,0.463,0.411,0.386,0.210,0.182,north,5.0,No
2016/04/05,01:00,0.448,0.258,0.465,0.410,0.387,0.210,0.180,north,4.7,No
2016/04/05,01:10,0.447,0.257,0.465,0.410,0.388,0.209,0.180,north,4.5,No
2016/04/05,01:20,0.445,0.259,0.464,0.411,0.387,0.208,0.181,north,4.1,No
2016/04/05,01:30,0.448,0.258,0.467,0.409,0.386,0.209,0.181,north,5.2,No
2016/04/05,01:40,0.447,0.257,0.463,0.411,0.386,0.210,0.182,north,5.7,No
2016/04/05,01:50,0.446,0.259,0.465,0.410,0.387,0.209,0.180,north,5.3,No
2016/04/05,02:00,0.449,0.258,0.465,0.411,0.387,0.209,0.181,north,4.7,No
2016/04/05,02:10,0.447,0.257,0.463,0.412,0.387,0.209,0.181,north,4.3,No
2016/04/05,02:20,0.448,0.259,0.465,0.409,0.388,0.209,0.180,north,5.6,No
2016/04/05,02:30,0.449,0.257,0.464,0.410,0.389,0.210,0.180,north,5.2,No
2016/04/05,02:40,0.448,0.257,0.466,0.412,0.386,0.209,0.180,north,5.0,No
2016/04/05,02:50,0.449,0.258,0.468,0.408,0.387,0.209,0.179,north,4.7,No
2016/04/05,03:00,0.446,0.257,0.463,0.411,0.386,0.209,0.181,north,4.2,No
2016/04/05,03:10,0.446,0.258,0.465,0.411,0.386,0.208,0.181,north,4.7,No
2016/04/05,03:20,0.449,0.259,0.465,0.410,0.387,0.209,0.181,north,5.2,No
2016/04/05,03:30,0.448,0.259,0.464,0.411,0.386,0.209,0.181,north,4.5,No
2016/04/05,03:40,0.446,0.258,0.466,0.408,0.387,0.210,0.181,north-northwest,3.9,No
2016/04/05,03:50,0.449,0.258,0.464,0.410,0.389,0.209,0.181,north,3.2,No
2016/04/05,04:00,0.448,0.258,0.464,0.412,0.386,0.210,0.182,north,3.6,No
2016/04/05,04:10,0.449,0.258,0.468,0.411,0.387,0.209,0.182,north,3.7,No
2016/04/05,04:20,0.449,0.259,0.464,0.411,0.388,0.210,0.181,north,3.7,No
2016/04/05,04:30,0.447,0.259,0.465,0.412,0.386,0.210,0.182,north,3.4,No
2016/04/05,04:40,0.450,0.258,0.465,0.410,0.388,0.208,0.181,north,3.5,No
2016/04/05,04:50,0.449,0.258,0.462,0.412,0.389,0.209,0.180,north,3.1,No
2016/04/05,05:00,0.447,0.258,0.467,0.412,0.389,0.209,0.180,north-northwest,6.0,No
2016/04/05,05:10,0.448,0.258,0.466,0.409,0.386,0.209,0.183,north,5.6,No
2016/04/05,05:20,0.448,0.258,0.465,0.411,0.388,0.209,0.181,north-northwest,5.1,No
2016/04/05,05:30,0.447,0.258,0.467,0.413,0.389,0.209,0.182,north,5.4,No
2016/04/05,05:40,0.450,0.258,0.465,0.410,0.386,0.209,0.180,north,5.3,No
2016/04/05,05:50,0.450,0.258,0.463,0.412,0.387,0.208,0.180,north,6.9,No
2016/04/05,06:00,0.448,0.260,0.466,0.411,0.389,0.209,0.182,north,6.0,No
2016/04/05,06:10,0.449,0.257,0.465,0.410,0.387,0.209,0.182,north,5.9,No
2016/04/05,06:20,0.449,0.258,0.466,0.411,0.388,0.209,0.181,north-northwest,4.9,No
2016/04/05,06:30,0.449,0.259,0.466,0.411,0.387,0.209,0.181,north-northwest,4.1,No
2016/04/05,06:40,0.450,0.257,0.464,0.411,0.387,0.210,0.181,north-northwest,3.5,No
2016/04/05,06:50,0.449,0.257,0.464,0.412,0.387,0.210,0.181,north-northwest,4.1,No
2016/04/05,07:00,0.449,0.259,0.468,0.411,0.388,0.209,0.181,north-northwest,3.9,No
2016/04/05,07:10,0.449,0.260,0.464,0.410,0.387,0.210,0.181,northwest,3.4,No
2016/04/05,07:20,0.447,0.259,0.466,0.412,0.386,0.209,0.180,northwest,2.1,No
2016/04/05,07:30,0.449,0.259,0.465,0.409,0.388,0.209,0.181,north-northwest,2.2,No
2016/04/05,07:40,0.449,0.256,0.464,0.411,0.386,0.210,0.181,north-northwest,2.1,No
2016/04/05,07:50,0.449,0.259,0.465,0.410,0.389,0.210,0.181,north-northwest,1.8,No
2016/04/05,08:00,0.450,0.257,0.464,0.411,0.387,0.209,0.180,north-northwest,2.5,No
2016/04/05,08:10,0.449,0.258,0.464,0.410,0.387,0.210,0.182,north-northwest,2.4,No
2016/04/05,08:20,0.449,0.256,0.467,0.409,0.388,0.210,0.180,north-northwest,1.7,No
2016/04/05,08:30,0.447,0.257,0.464,0.407,0.386,0.210,0.182,east-southeast,0.8,No
2016/04/05,08:40,0.446,0.257,0.467,0.412,0.390,0.210,0.180,east,2.6,No
2016/04/05,08:50,0.448,0.259,0.465,0.409,0.387,0.209,0.182,east-northeast,1.7,No
2016/04/05,09:00,0.447,0.259,0.466,0.412,0.388,0.210,0.182,east-northeast,1.9,No
2016/04/05,09:10,0.448,0.258,0.467,0.410,0.389,0.210,0.182,east-northeast,2.4,No
2016/04/05,09:20,0.449,0.259,0.465,0.411,0.389,0.212,0.182,east,2.4,No
2016/04/05,09:30,0.447,0.259,0.468,0.412,0.389,0.210,0.182,east-northeast,2.2,No
2016/04/05,09:40,0.448,0.258,0.464,0.412,0.391,0.211,0.182,southeast,1.7,No
2016/04/05,09:50,0.446,0.260,0.468,0.414,0.390,0.211,0.183,east-southeast,2.1,No
2016/04/05,10:00,0.451,0.258,0.465,0.411,0.389,0.210,0.182,east,1.6,No
2016/04/05,10:10,0.445,0.259,0.466,0.415,0.389,0.210,0.182,east-northeast,1.1,No
2016/04/05,10:20,0.451,0.258,0.469,0.410,0.390,0.211,0.183,east-northeast,1.6,No
2016/04/05,10:30,0.448,0.260,0.464,0.415,0.387,0.209,0.184,east-northeast,2.4,No
2016/04/05,10:40,0.452,0.258,0.468,0.412,0.391,0.212,0.183,east-northeast,2.7,No
2016/04/05,10:50,0.450,0.260,0.463,0.412,0.388,0.210,0.183,east-northeast,2.3,No
2016/04/05,11:00,0.450,0.258,0.468,0.415,0.393,0.212,0.183,east-northeast,2.1,No
2016/04/05,11:10,0.452,0.260,0.465,0.411,0.388,0.210,0.184,east,3.2,No
2016/04/05,11:20,0.449,0.258,0.462,0.415,0.391,0.212,0.184,east-southeast,3.3,No
2016/04/05,11:30,0.452,0.261,0.470,0.415,0.390,0.211,0.183,southeast,3.7,No
2016/04/05,11:40,0.450,0.258,0.462,0.415,0.390,0.211,0.184,southeast,3.3,No
2016/04/05,11:50,0.449,0.260,0.469,0.414,0.391,0.211,0.183,south-southeast,3.2,No
2016/04/05,12:00,0.454,0.259,0.467,0.413,0.390,0.211,0.183,south-southeast,4.5,No
2016/04/05,12:10,0.448,0.261,0.464,0.417,0.393,0.212,0.183,south-southeast,3.9,No
2016/04/05,12:20,0.453,0.259,0.470,0.414,0.388,0.211,0.184,south,4.9,No
2016/04/05,12:30,0.452,0.260,0.465,0.418,0.393,0.212,0.183,south,4.7,No
2016/04/05,12:40,0.448,0.259,0.470,0.415,0.389,0.211,0.184,south,4.9,No
2016/04/05,12:50,0.452,0.260,0.468,0.417,0.393,0.212,0.184,south,4.6,No
2016/04/05,13:00,0.449,0.260,0.466,0.415,0.392,0.211,0.185,south,4.6,No
2016/04/05,13:10,0.455,0.259,0.470,0.416,0.391,0.212,0.183,south,5.2,No
2016/04/05,13:20,0.452,0.260,0.466,0.417,0.393,0.213,0.185,south,4.7,No
2016/04/05,13:30,0.450,0.261,0.472,0.414,0.389,0.214,0.185,south-southeast,6.2,No
2016/04/05,13:40,0.454,0.261,0.469,0.417,0.394,0.211,0.185,south,6.7,No
2016/04/05,13:50,0.451,0.259,0.471,0.415,0.390,0.211,0.184,south,6.6,No
2016/04/05,14:00,0.457,0.262,0.471,0.418,0.395,0.212,0.184,south,6.3,No
2016/04/05,14:10,0.451,0.259,0.465,0.414,0.388,0.212,0.185,south,7.2,No
2016/04/05,14:20,0.455,0.259,0.473,0.420,0.396,0.211,0.185,south,7.3,No
2016/04/05,14:30,0.454,0.259,0.469,0.415,0.391,0.212,0.185,south,7.8,No
2016/04/05,14:40,0.452,0.262,0.470,0.417,0.392,0.213,0.185,south,7.2,No
2016/04/05,14:50,0.455,0.259,0.473,0.416,0.394,0.212,0.184,south,8.4,No
2016/04/05,15:00,0.452,0.261,0.469,0.420,0.393,0.213,0.185,south,8.9,No
2016/04/05,15:10,0.454,0.260,0.474,0.417,0.391,0.212,0.185,south,10.5,No
2016/04/05,15:20,0.452,0.261,0.469,0.420,0.391,0.214,0.185,south,10.8,No
2016/04/05,15:30,0.457,0.260,0.476,0.421,0.395,0.212,0.186,south,10.4,No
2016/04/05,15:40,0.454,0.262,0.473,0.420,0.393,0.213,0.186,south,9.8,No
2016/04/05,15:50,0.454,0.262,0.474,0.422,0.395,0.213,0.184,south,11.8,No
2016/04/05,16:00,0.454,0.262,0.475,0.418,0.394,0.214,0.185,south,11.3,No
2016/04/05,16:10,0.455,0.263,0.471,0.419,0.394,0.213,0.186,south,11.2,No
2016/04/05,16:20,0.454,0.262,0.476,0.419,0.394,0.213,0.185,south,10.0,No
2016/04/05,16:30,0.454,0.262,0.472,0.419,0.392,0.213,0.186,south,10.4,No
2016/04/05,16:40,0.455,0.262,0.475,0.422,0.396,0.213,0.187,south,11.0,No
2016/04/05,16:50,0.454,0.262,0.473,0.420,0.393,0.214,0.185,south,10.9,No
2016/04/05,17:00,0.456,0.262,0.473,0.419,0.396,0.213,0.184,south,12.7,No
2016/04/05,17:10,0.453,0.264,0.475,0.419,0.393,0.214,0.186,south,12.1,No
2016/04/05,17:20,0.456,0.262,0.471,0.419,0.394,0.213,0.186,south,14.0,No
2016/04/05,17:30,0.455,0.262,0.475,0.418,0.394,0.214,0.187,south,13.7,No
2016/04/05,17:40,0.454,0.265,0.473,0.421,0.392,0.214,0.186,south,12.6,No
2016/04/05,17:50,0.457,0.263,0.471,0.418,0.395,0.214,0.185,south-southwest,13.1,No
2016/04/05,18:00,0.453,0.262,0.475,0.420,0.396,0.214,0.186,south-southwest,12.0,No
2016/04/05,18:10,0.454,0.262,0.472,0.421,0.392,0.213,0.185,south-southwest,11.6,No
2016/04/05,18:20,0.455,0.261,0.474,0.420,0.395,0.214,0.187,south-southwest,11.0,No
2016/04/05,18:30,0.454,0.263,0.474,0.420,0.393,0.213,0.187,south-southwest,11.5,No
2016/04/05,18:40,0.455,0.262,0.472,0.419,0.392,0.214,0.185,south-southwest,12.1,No
2016/04/05,18:50,0.455,0.262,0.474,0.418,0.394,0.213,0.187,south-southwest,10.9,No
2016/04/05,19:00,0.454,0.263,0.472,0.420,0.392,0.214,0.186,south-southwest,12.1,No
2016/04/05,19:10,0.458,0.262,0.472,0.419,0.393,0.214,0.188,south-southwest,11.7,No
2016/04/05,19:20,0.454,0.262,0.476,0.418,0.393,0.214,0.186,south-southwest,10.7,No
2016/04/05,19:30,0.457,0.261,0.474,0.418,0.392,0.215,0.187,south-southwest,11.3,No
2016/04/05,19:40,0.456,0.262,0.472,0.417,0.392,0.213,0.187,south-southwest,12.3,No
2016/04/05,19:50,0.455,0.262,0.476,0.418,0.393,0.214,0.187,south-southwest,11.5,No
2016/04/05,20:00,0.456,0.262,0.474,0.420,0.392,0.215,0.186,south-southwest,10.8,No
2016/04/05,20:10,0.456,0.262,0.473,0.420,0.393,0.213,0.186,south-southwest,10.7,No
2016/04/05,20:20,0.454,0.261,0.476,0.417,0.393,0.212,0.186,south-southwest,10.6,No
2016/04/05,20:30,0.457,0.262,0.474,0.420,0.393,0.213,0.187,south-southwest,10.2,No
2016/04/05,20:40,0.455,0.262,0.474,0.419,0.393,0.214,0.186,south-southwest,9.2,No
2016/04/05,20:50,0.454,0.262,0.474,0.419,0.393,0.214,0.187,south-southwest,7.9,No
2016/04/05,21:00,0.457,0.262,0.473,0.421,0.393,0.214,0.187,south-southwest,7.2,No
2016/04/05,21:10,0.455,0.261,0.475,0.419,0.391,0.214,0.187,south-southwest,6.3,No
2016/04/05,21:20,0.453,0.263,0.474,0.419,0.393,0.214,0.186,southwest,6.7,No
2016/04/05,21:30,0.457,0.262,0.473,0.420,0.393,0.214,0.186,southwest,6.5,No
2016/04/05,21:40,0.454,0.262,0.474,0.418,0.390,0.213,0.187,southwest,5.0,No
2016/04/05,21:50,0.455,0.261,0.472,0.420,0.390,0.214,0.186,south-southwest,4.4,No
2016/04/05,22:00,0.457,0.261,0.473,0.420,0.393,0.214,0.186,south-southwest,3.6,No
2016/04/05,22:10,0.455,0.262,0.475,0.418,0.392,0.213,0.186,southwest,4.2,No
2016/04/05,22:20,0.455,0.262,0.473,0.419,0.392,0.214,0.187,west,4.7,No
2016/04/05,22:30,0.456,0.262,0.474,0.421,0.393,0.214,0.185,west,5.5,No
2016/04/05,22:40,0.453,0.261,0.474,0.417,0.391,0.214,0.187,west-northwest,4.2,No
2016/04/05,22:50,0.455,0.263,0.475,0.420,0.391,0.213,0.185,west-northwest,5.6,No
2016/04/05,23:00,0.456,0.262,0.475,0.420,0.394,0.214,0.186,west-northwest,8.1,No
2016/04/05,23:10,0.454,0.262,0.473,0.418,0.391,0.213,0.187,west-northwest,8.1,No
2016/04/05,23:20,0.456,0.262,0.472,0.420,0.392,0.214,0.187,west-northwest,9.2,No
2016/04/05,23:30,0.456,0.262,0.476,0.419,0.392,0.213,0.186,west-northwest,8.9,No
2016/04/05,23:40,0.454,0.261,0.473,0.420,0.392,0.213,0.187,west-northwest,7.8,No
2016/04/05,23:50,0.457,0.261,0.474,0.420,0.391,0.214,0.187,west-northwest,7.3,No
